Tracking 23582 objects as of 31-Jul-2021
HD Live streaming from Space Station
objects crossing your sky now

ONEWEB-0278

Track ONEWEB-0278 now!
10-day predictions
ONEWEB-0278 is classified as:


NORAD ID: 48996
Int'l Code: 2021-061AF
Perigee: 565.7 km
Apogee: 584.0 km
Inclination: 87.5 °
Period: 96.0 minutes
Semi major axis: 6945 km
RCS: Unknown
Launch date: July 1, 2021
Source: United Kingdom (UK)
Launch site: VOSTOCHNY COSMODROME (VOSTO)
aabbcc
Your satellite tracking list
Your tracking list is empty




NASA's NSSDC Master Catalog

Two Line Element Set (TLE):
1 48996U 21060AF  21212.25001157 -.01507945  00000-0 -13399+0 0  9991
2 48996  87.4729 227.0433 0013223 134.5484 244.4789 14.99735426  5841
Source of the keplerian elements: AFSPC